EW8187 Weather Reports


time (UTC)temp
C
wind
direction
speed
KPH
gust
KPH
rain 1hr
cm
rain 24hr
cm
rain mn
cm
humidity
%
barometer
mb
20260507014510 20 117 1.6 11.3 0.00 0.00 0.00 63 1017.4
20260507013006 21 117 1.6 12.9 0.00 0.00 0.00 62 1017.2
20260507011506 21 72 3.2 12.9 0.00 0.00 0.00 61 1017.0
20260507010004 21 76 3.2 14.5 0.00 0.00 0.00 60 1016.9
20260507004502 22 84 4.8 14.5 0.00 0.00 0.00 58 1016.9
20260507003002 22 78 1.6 16.1 0.00 0.00 0.00 58 1016.9
20260507001604 22 36 6.4 17.7 0.00 0.00 0.00 56 1016.8
20260507000059 23 122 1.6 9.7 0.00 0.00 0.00 54 1016.7
20260506234558 23 109 3.2 17.7 0.00 0.00 0.00 54 1016.7
20260506233058 23 44 4.8 19.3 0.00 0.00 0.00 54 1016.8
20260506231558 23 108 3.2 22.5 0.00 0.00 0.00 53 1016.9
20260506230051 23 141 3.2 20.9 0.00 0.00 0.00 52 1017.1
20260506224549 23 86 3.2 16.1 0.00 0.00 0.00 52 1017.2
20260506223045 22 85 4.8 17.7 0.00 0.00 0.00 51 1017.5
20260506221543 22 46 1.6 22.5 0.00 0.00 0.00 52 1017.6
20260506220041 22 44 3.2 16.1 0.00 0.00 0.00 52 1017.8
20260506214548 22 86 6.4 17.7 0.00 0.05 0.00 52 1018.1
20260506213036 22 66 4.8 14.5 0.00 0.05 0.00 52 1018.2
20260506211534 22 90 1.6 16.1 0.00 0.05 0.00 54 1018.3
20260506210032 22 78 8.0 16.1 0.00 0.05 0.00 53 1018.5
20260506204529 22 14 1.6 9.7 0.00 0.05 0.00 53 1018.9
20260506203029 21 70 1.6 16.1 0.00 0.05 0.00 52 1019.0
20260506201524 21 104 0.0 14.5 0.00 0.05 0.00 53 1019.1
20260506200022 20 75 6.4 17.7 0.00 0.05 0.00 57 1019.3
20260506194519 20 83 3.2 11.3 0.00 0.05 0.00 54 1019.5
20260506193018 20 49 0.0 9.7 0.00 0.05 0.00 58 1019.6
20260506191517 18 39 9.7 17.7 0.00 0.05 0.00 57 1019.8
20260506190021 18 15 3.2 12.9 0.00 0.05 0.00 59 1020.0
20260506184510 18 112 0.0 9.7 0.00 0.05 0.00 63 1020.1
20260506183008 17 308 4.8 11.3 0.00 0.05 0.00 62 1020.3
20260506181506 17 84 0.0 6.4 0.00 0.05 0.00 64 1020.4
20260506180006 16 300 0.0 16.1 0.00 0.05 0.00 64 1020.4
20260506174501 16 40 0.0 9.7 0.00 0.05 0.00 66 1020.4
20260506173134 16 8 1.6 9.7 0.00 0.05 0.00 67 1020.3
20260506171557 15 351 3.2 12.9 0.00 0.05 0.00 69 1020.4
20260506170054 16 340 1.6 8.0 0.00 0.05 0.00 67 1020.4
20260506164551 15 122 0.0 6.4 0.00 0.05 0.00 69 1020.3
20260506163053 14 300 1.6 9.7 0.00 0.05 0.00 70 1020.4
20260506161553 14 271 0.0 9.7 0.00 0.05 0.00 69 1020.3
20260506160045 14 129 0.0 8.0 0.00 0.05 0.00 71 1020.4
20260506154544 14 68 0.0 6.4 0.00 0.05 0.00 70 1020.3
20260506153041 13 77 0.0 6.4 0.00 0.05 0.00 73 1020.4
20260506151541 13 56 0.0 3.2 0.00 0.05 0.00 73 1020.4
20260506150038 13 27 0.0 3.2 0.00 0.05 0.00 73 1020.5
20260506144551 12 55 0.0 1.6 0.00 0.05 0.00 74 1020.4
20260506143034 12 148 0.0 0.0 0.00 0.05 0.00 78 1020.3
20260506141535 11 131 0.0 1.6 0.00 0.05 0.00 82 1020.4
20260506140024 10 144 0.0 0.0 0.00 0.05 0.00 84 1020.2
20260506134521 8 154 0.0 1.6 0.00 0.05 0.00 87 1020.1
20260506133021 8 141 0.0 1.6 0.00 0.05 0.00 89 1019.9
20260506131523 7 158 0.0 1.6 0.00 0.05 0.00 89 1019.8
20260506130018 7 134 0.0 1.6 0.00 0.05 0.00 90 1019.6
20260506124516 7 128 0.0 1.6 0.00 0.05 0.00 90 1019.6
20260506123016 7 146 0.0 1.6 0.00 0.05 0.00 90 1019.5
20260506121514 7 134 0.0 0.0 0.00 0.05 0.00 89 1019.4
20260506120022 7 154 0.0 1.6 0.00 0.05 0.00 89 1019.3
20260506114513 7 161 0.0 0.0 0.00 0.08 0.00 89 1019.2
20260506113010 7 144 0.0 1.6 0.00 0.08 0.00 89 1019.4
20260506111510 7 164 0.0 0.0 0.00 0.08 0.00 89 1019.2
20260506110012 7 176 0.0 0.0 0.00 0.08 0.00 88 1019.2
20260506104507 7 158 0.0 0.0 0.00 0.08 0.00 88 1019.2
20260506103007 8 180 0.0 0.0 0.00 0.08 0.00 88 1019.3
20260506101506 8 136 0.0 1.6 0.00 0.08 0.00 88 1019.3
20260506100005 8 159 0.0 0.0 0.00 0.08 0.00 87 1019.3
20260506094505 8 173 0.0 0.0 0.00 0.15 0.00 86 1019.3
20260506093006 8 153 0.0 0.0 0.00 0.15 0.00 87 1019.1
20260506091606 8 154 0.0 0.0 0.00 0.15 0.00 87 1019.3
20260506090101 8 165 0.0 0.0 0.00 0.15 0.00 86 1019.4
20260506084600 8 176 0.0 0.0 0.00 0.18 0.00 86 1019.4
20260506083100 8 152 0.0 0.0 0.00 0.18 0.00 85 1019.6
20260506081554 8 141 0.0 0.0 0.00 0.18 0.00 84 1019.7
20260506080105 8 132 0.0 0.0 0.00 0.18 0.00 84 1019.6
20260506073103 9 139 0.0 1.6 0.00 0.18 0.00 84 1019.6
20260506071649 9 131 0.0 1.6 0.00 0.18 0.00 84 1019.6
20260506061541 10 158 0.0 1.6 0.00 0.18 0.18 84 1019.1
20260506044540 10 122 0.0 4.8 0.00 0.18 0.18 80 1018.3
20260506043031 10 165 0.0 1.6 0.00 0.18 0.18 81 1018.2
20260506041539 10 167 0.0 0.0 0.00 0.18 0.18 80 1017.9
20260506040032 11 167 0.0 0.0 0.00 0.18 0.18 77 1017.7
20260506034530 11 119 0.0 1.6 0.00 0.18 0.18 75 1017.5
20260506033023 11 143 0.0 0.0 0.00 0.18 0.18 75 1017.3
20260506031521 12 128 0.0 4.8 0.00 0.18 0.18 72 1017.0
20260506030020 12 129 0.0 4.8 0.00 0.18 0.18 70 1016.8
20260506024519 13 119 0.0 6.4 0.00 0.18 0.18 68 1016.5
20260506023019 13 86 1.6 8.0 0.00 0.18 0.18 67 1016.3
20260506021516 13 72 0.0 8.0 0.00 0.18 0.18 67 1016.1
20260506020014 13 103 0.0 9.7 0.00 0.18 0.18 68 1016.0